AirNav   Duncan Aviation - Near you to keep you flying
 
 1455 users online  

KNGU Norfolk Naval Station (Chambers Field)
Norfolk, Virginia, USA

GOING TO NORFOLK?


FAA INFORMATION EFFECTIVE 03 NOVEMBER 2022

Location

FAA Identifier: NGU
Lat/Long: 36-56-14.8870N 076-17-21.4010W
36-56.248117N 076-17.356683W
36.9374686,-76.2892781
(estimated)
Elevation: 14.8 ft. / 4.5 m (surveyed)
Variation: 10W (1990)
Time zone: UTC -5 (UTC -4 during Daylight Saving Time)
Zip code: 23503

Airport Operations

Airport use: Private use. Permission required prior to landing
Activation date: 04/1943
Control tower: yes
ARTCC: WASHINGTON CENTER
FSS: LEESBURG FLIGHT SERVICE STATION
NOTAMs facility: NGU (NOTAM-D service available)
Attendance: CONTINUOUS
CLSD 0400Z FOURTH THU NOV - 1200Z FOURTH FRI NOV, CLSD 1900Z 24 DEC - 1200Z 26 DEC, CLSD 1900Z 31 DEC - 1200Z 2 JAN.
Segmented circle: no
Lights: AVBL ONLY DURING HRS OF OPERATION.
Beacon: white-white-green (lighted military airport)
Operates sunset to sunrise.

Airport Communications

ATIS: 118.425 342.0
CHAMBERS GROUND: 121.8 298.95 ;NAVY NORFOLK HELIN 370.85
CHAMBERS TOWER: 124.3 126.375 ;NAVY NORFOLK HELIN 290.5 ;NAVY NORFOLK HELIN 379.15
NORFOLK APPROACH: 118.9 ;010-310 125.7 ;311-009
NORFOLK DEPARTURE: 125.7 ;311-009
CLEARANCE DELIVERY: 120.7 339.8
AMC/ATOC: 130.65 349.5
BASE OPS: 134.1 268.8
EMERG: 121.5 243.0
PMSV METRO: 271.6
WX ASOS at ORF (5 nm SE): PHONE 757-460-9348
WX AWOS-3PT at PVG (12 nm SW): 118.375 (757-465-2175)
WX ASOS at NTU (14 nm SE): PHONE DSN 433-3619 or 757-433-3619
WX ASOS at PHF (15 nm NW): PHONE 757-874-3682
WX AWOS-3 at CPK (16 nm S): 123.675 (757-204-4290)
  • NOTIFY CHAMBERS OPNS ON FREQ 268.8 ON ALL VIP FLIGHTS 15 MIN PRIOR TO ARRIVAL.
  • ALL RADAR FREQUENCIES ARE ON REQUEST.

Nearby radio navigation aids

VOR radial/distance  VOR name  Freq  Var
ORFr310/5.1NORFOLK VORTAC116.9007W
CCVr220/28.3CAPE CHARLES VORTAC112.2010W
HCMr154/36.7HARCUM VORTAC108.8007W
FKNr078/37.2FRANKLIN VORTAC110.6009W

 
NDB name  Hdg/Dist  Freq  Var  ID
INGLE352/6.132909WOR --- .-.
WAKEFIELD106/34.227411WAKQ .- -.- --.-

Airport Services

Bottled oxygen: NONE
Bulk oxygen: HIGH/LOW

Runway Information

Runway 10/28

Dimensions: 8370 x 200 ft. / 2551 x 61 m
Surface: asphalt/grooved
Weight bearing capacity: 
PCN 56 /R/B/W/T
Runway edge lights: high intensity
RUNWAY 10  RUNWAY 28
Latitude: 36-56.247967N36-56.248162N
Longitude: 076-18.215905W076-16.497447W
Elevation: 13.2 ft.12.5 ft.
Traffic pattern: leftright
Runway heading: 100 magnetic, 090 true280 magnetic, 270 true
Displaced threshold: 299 ft.995 ft.
Declared distances: TORA:8370 LDA:8071TORA:8370 LDA:7375
Markings: precision, in good conditionprecision, in good condition
Visual slope indicator: 4-light PAPI on right (3.00 degrees glide path)4-light PAPI on right (3.00 degrees glide path)
Approach lights: ALSF2: standard 2,400 foot high intensity approach lighting system with centerline sequenced flashers (category II or III)
OLS RWY 10.
SSALF: simplified short approach lighting system with sequenced flashers
OLS RWY 28.
Runway end identifier lights: yesyes
Centerline lights: yesyes
Touchdown point: yes, lightedyes, lighted
Instrument approach: ILS/DME

Airport Ownership and Management from official FAA records

Ownership: U.S. Navy
Owner: U.S. NAVY
OCEANOGRAPHIC OFC-CODE 3142
WASHINGTON, DC 20373
Manager: COMMANDING OFFICER
NAVAL AIR STATION
NORFOLK, VA 23511

Additional Remarks

E60-28 HOOK E28 (B) (1062 FT).
E60-10 HOOK E28(B) (1500 FT).
AOE.
CAUTION: EXTV FISH SPOTTER ACFT ACT (SENG GENERAL AVIATION ACFT) UPWARDS FR 1500 FT OVER CHESAPEAKE BAY AND ADJ COASTAL WATERS. EXTV VFR TFC OPR W OF CHAMBERS CLASS D AND NORFOLK CLASS C AIRSPACE. BIRD HAZ.
TFC PAT: R TFC RWY 28. BASIC F/W/VFR MIN 1000 FT AND 3 NM.
NS ABTMT: NO PRACTICE APCH 0400-1200Z++ MON-SAT; 0400-1800Z++ SUN. OT BY NOTAM. NO COPTER OVFT WILLOUGHBY SPIT EXC VIA PT XRAY (CHAMBERS TACAN R-042/1.5 DME) OR PT YANKEE (CHAMBERS TACAN R-009/1.8 DME) AT 500 FT.
CSTMS/AG/IMG: CSTMS AVBL WITH 2 HR PN. AG AVBL 1300-2400Z++ MON-FRI. IMG AVBL 1300-2100Z++ MON-FRI. AG/IMG AVBL OT ON OVERTIME BASIS ONLY, PRIOR ARNG RQR.
MISC: RWY 10/28 GROOVED.
CAUTION: ARR/DEP TCAS EQUIPPED ACFT SHOULD EXPECT NUMEROUS TCAS ALERTS FROM SHIP TRANSPONDER HARBORED OR TRANSITING INTO/OUT OF THE CHESAPEAKE AND COASTAL WATERS.
ARR/DEP TCAS EQUIPED ACFT SHOULD EXPECT NUMEROUS TCAS ALERTS FROM SHIP TRANSPONDER OR TRANSMITTING INTO/OUT OF THE CHESAPEAKE AND COASTAL WATERS.
CAUTION - DO NOT MISTAKE NORFOLK INTL 5 NM SE FOR CHAMBERS FIELD, WHILE INBD ON TACAN/RNAV RWY 28 APCHS. CHAMBERS FIELD HAS A SINGLE RWY; NORFOLK INTL HAS INTERSECTING RWYS.
RSTD - PPR FOR NON CHAMBERS FIELD BASED ACFT. DSN 262-3419/3429 C757-322-3419/3429.
AMC/ATOC DSN 564-4735/3922, C757-444-4735/3922. ACFT UTILIZING AMC TRML CTC ATOC/AMC TRML 15 MIN PRIOR ARR WITH LOAD RPT. ACFT OVERSEAS CTC AMC/ATOC VIA FONE PATCH 2 HR PRIOR ARR FOR CSTM. ALL OTHER ACFT, CTC BASE OPS 15 MIN PRIR ARR.
MISC- FLT PLANS FOR NS NORFOLK, CHAMBERS FLD, AND NAS OCEANA SHOULD BE FAXED TO DSN 565-9680, C757-445-9680, OR EMAILED TO KNGU.FLTPLNG.FCT@NAVY.MIL. TO CFM RECEIPT OF FLT PLANS CALL NS NORFOLK, CHAMBERS FLD FLT PLANNING SUPERVISOR AT DSN 262-3419/3429, C757-322-3419/3429.
CAUTION - RWY 28 MULTIPLE CRANES 1.2 NM TO 1.3 NM FM DER 1600 FT L TO 4000 FT R OF CNTRLN, 260 FT MSL.
FOR CIVIL ACFT LNDG PERMIT (CALP) INFO CTC AFLD MGR C757-322-3419/3429.
ILS/TACAN/RADAR - ILS OR LOC/DME RWY 10 - BC UNUSED. ILS AND TACAN NO NOTAM MP WED 1230-1630Z++. RADAR - SEE TERMINAL FLIP FOR RADAR MINIMA.
A-GEAR: AVOID CNTRLN LGT RWY 10/28 DUR CABLE ENGAGEMENT TO PREVENT TAILHOOK SKIP. DIST RWY 28 MEASURED FR DISPL THR. E-28(B) IN RAISED POSN AT DEP END OF RWY NMLLY. SHORTFLD GEAR AVBL WITH 20 MIN PN.
JASU:(NC-10C) (NC-8A/A1) (NCPP-105 CTC AIR OPS DUTY OFFICER TO ENSURE AVBL).
FUEL: NO TRAN COPTER HOT PIT WO PRIOR COORD WITH HOST SQUADRON. J5.
FLUID: ADI SP PRESAIR LHOX LOX.
OIL: UNAVBL.
TRAN ALERT: LTD TRAN MAINT AVBL WKEND ONLY 1200-2000Z++. TRAN MAINT UNAVBL OT. 2 HR PN RQR FOR LOX. LAVATORY SVC UNAVBL FOR C-130 ACFT. POTABLE WATER UNAVBL. NO TRAN WORK/MSN PLANNING/BRIEFING SPACES OR COMSEC STOR FOR DETS.
RSTD: TWY B CLSD S OF TWY F AND TWY D CLSD E OF TWY S UFN.

Instrument Procedures

NOTE: All procedures below are presented as PDF files. If you need a reader for these files, you should download the free Adobe Reader.

NOT FOR NAVIGATION. Please procure official charts for flight.
FAA instrument procedures published for use from 03 November 2022 at 0901Z to 01 December 2022 at 0900Z.

 
STARs - Standard Terminal Arrivals
DRONE TWO   2 pages: [1] [2] (287KB)
TERKS TWO **CHANGED**   download (183KB)
 
IAPs - Instrument Approach Procedures
ILS OR LOC/DME RWY 10   download (176KB)
RNAV (GPS) RWY 10   download (170KB)
RNAV (GPS) RWY 28   download (176KB)
HI-TACAN RWY 10   download (213KB)
HI-TACAN RWY 28   download (218KB)
TACAN RWY 10   download (161KB)
TACAN RWY 28   download (160KB)
Radar Approach Procedures available **CHANGED**   download (160KB)
 
CHAMBERS ONE (OBSTACLE)   2 pages: [1] [2] (241KB)
NOTE: Special Take-Off Minimums/Departure Procedures apply   download (379KB)

Other nearby airports with instrument procedures:

KNHU - Norfolk Naval Station Airport (1 nm NW)
KORF - Norfolk International Airport (5 nm SE)
KLFI - Langley Air Force Base (9 nm N)
KPVG - Hampton Roads Executive Airport (12 nm SW)
KNTU - Oceana Naval Air Station (Apollo Soucek Field) (14 nm SE)
KPHF - Newport News/Williamsburg International Airport (15 nm NW)
KCPK - Chesapeake Regional Airport (16 nm S)
KFAF - Felker Army Airfield (19 nm NW)
 
Loc | Ops | Rwys | IFR | FBO | Links
Com | Nav | Svcs | Stats | Notes
Area around KNGU (Norfolk Naval Station (Chambers Field))
 
Road maps at: MapQuest Bing Google
 
Aerial photo
WARNING: Photo may not be current or correct
Aerial photo of KNGU (Norfolk Naval Station (Chambers Field))
Photo by David Newcomer
Photo taken 10-Sep-2019
looking southeast from 5,000'.

Do you have a better or more recent aerial photo of Norfolk Naval Station (Chambers Field) that you would like to share? If so, please send us your photo.

 
Sectional chart

 
Airport diagram
Diagram of KNGU (Norfolk Naval Station (Chambers Field))
Download PDF
of official airport diagram from the FAA

 
Airport distance calculator
Flying to Norfolk Naval Station (Chambers Field)? Find the distance to fly.

From to KNGU

Sunrise and sunset
Times for 30-Nov-2022
 Local
(UTC-5)
 Zulu
(UTC)
Morning civil twilight06:3111:31
Sunrise07:0012:00
Sunset16:4821:48
Evening civil twilight17:1622:16

Current date and time
Zulu (UTC)  30-Nov-2022 20:36:51
Local (UTC-5)  30-Nov-2022 15:36:51
 
METAR
KNGU 
2nm SE 
302017Z 22010G19KT 10SM BKN020 OVC026 17/15 A2984 RMK AO2 T01720150
KORF 
5nm SE 
301951Z 20012KT 10SM BKN025 OVC032 16/16 A2983 RMK AO2 SLP099 T01610156
KLFI 
9nm NW 
302010Z AUTO 24010KT 10SM BKN014 OVC023 16/16 A2981 RMK AO2 SLP101 $
KPVG 
12nm SW 
301956Z AUTO 20007KT 10SM BKN016 OVC021 16/15 A2985 RMK AO2 SLP108 T01560150 PNO $
KNTU 
15nm SE 
302017Z 21010G19KT 10SM BKN021 OVC032 17/15 A2982 RMK AO2 T01720150
KPHF 
15nm NW 
301954Z 20011KT 10SM BKN017 OVC028 16/14 A2982 RMK AO2 SLP099 T01560144
KCPK 
16nm S 
302015Z AUTO 21007KT 10SM BKN016 OVC023 17/14 A2984 RMK AO2 T01650142
KNFE 
16nm SE 
301956Z AUTO 19011G18KT 10SM FEW017 BKN025 OVC033 18/16 A2984 RMK AO2 SLP106 T01780156 PWINO
KFAF 
19nm NW 
302010Z 21008KT 10SM BKN006 OVC025 15/14 A2980 RMK PRESFR SLP095 $
TAF
KNGU 
2nm SE 
3018/0115 21007G15KT 9999 VCSH FEW015 SCT050 BKN150 QNH2983INS WS020/20045KT TEMPO 3018/3022 BKN005 OVC015 BECMG 3021/3023 25013G22KT 9999 NSW SCT010 OVC050 QNH2986INS WND 200V310 TEMPO 3022/0101 BKN010 FM010100 31012G22KT 9999 FEW050 QNH3000INS T18/3021Z T03/0110Z AMD 1845 FN20002
KORF 
5nm SE 
301720Z 3018/0118 20012KT 6SM -SHRA SCT006 BKN025 TEMPO 3018/3020 BKN006 FM302000 23015G25KT P6SM VCSH BKN030 FM302300 27015G22KT P6SM VCSH BKN040 FM010100 29015G25KT P6SM SCT060 FM011100 32012KT P6SM SKC
KLFI 
9nm NW 
301800Z 3018/0124 18012G18KT 9000 -DZ SCT015 BKN020 QNH2981INS TEMPO 3018/3020 18015G20KT SCT008 BKN015 BKN040 BECMG 3020/3021 21015G25KT 9999 NSW SCT015 BKN055 QNH2983INS BECMG 3022/3023 22015KT 9999 SCT020 BKN055 QNH2997INS BECMG 0113/0114 32015G25KT 9999 FEW200 QNH2993INS BECMG 0116/0117 33012KT 9999 FEW200 QNH3032INS TX12/0118Z TN04/0101Z
KNTU 
15nm SE 
3018/0115 21012G18KT 9999 SCT006 BKN020 BKN080 540009 WS020/22045KT QNH2982INS TEMPO 3018/3021 SCT006 BKN030 BKN100 BKN200 FM302100 27015G24KT 9999 BKN030 BKN100 BKN200 540009 QNH2985INS TEMPO 3021/0101 8000 RA BR BKN015 OVCV030 FM010100 32016G23KT 9999 FEW012 500000 QNH3005INS T19/3019Z T07/0109Z AMD 1802Z FN20008
KPHF 
15nm NW 
301720Z 3018/0118 17012KT 6SM -SHRA SCT005 BKN025 TEMPO 3018/3020 BKN005 FM302000 23015G25KT P6SM VCSH BKN030 FM302300 27012G22KT P6SM VCSH BKN040 FM010100 29012KT P6SM SCT060 FM011100 32010KT P6SM SKC
KFAF 
19nm NW 
301900Z 3019/0201 22012G18KT 9999 SCT015 BKN040 QNH2983INS TEMPO 3019/3020 9000 -DZ BECMG 3022/3023 26012KT 9999 BKN055 QNH2992INS BECMG 0102/0103 30009KT 9999 SCT060 QNH3012INS BECMG 0113/0114 33012G18KT 9999 SKC QNH3040INS BECMG 0118/0119 33009KT 9999 SKC QNH3042INS BECMG 0122/0123 VRB06KT 9999 SKC QNH3050INS TX16/3021Z TN02/0111Z
NOTAMs
Click for the latest NOTAMs
NOTAMs are issued by the DoD/FAA and will open in a separate window not controlled by AirNav.

 

 
 

Would you like to see your business listed on this page?

 If your business provides an interesting product or service to pilots, flight crews, aircraft, or users of the Norfolk Naval Station (Chambers Field), you should consider listing it here.  To start the listing process, click on the button below
 
Add a business
 

Other Pages about Norfolk Naval Station (Chambers Field)

Update a link
 
Copyright © AirNav, LLC. All rights reserved. Privacy Policy  Contact